Waarnemingen

Advertentie
Mijn weer
Lyon/Bron, Frankrijk (7480): temperatuur & dauwpunt: 07.11.2019 22:00:00 - 13.11.2019 22:00:00 (CET)Lyon/Bron, Frankrijk (7480): temperatuur 5cm: 07.11.2019 22:00:00 - 13.11.2019 22:00:00 (CET)Lyon/Bron, Frankrijk (7480): temperatuur -20cm: 07.11.2019 22:00:00 - 13.11.2019 22:00:00 (CET)Lyon/Bron, Frankrijk (7480): windsnelheid & windstoten: 07.11.2019 22:00:00 - 13.11.2019 22:00:00 (CET)Lyon/Bron, Frankrijk (7480): windrichting: 07.11.2019 22:00:00 - 13.11.2019 22:00:00 (CET)Lyon/Bron, Frankrijk (7480): luchtdruk: 07.11.2019 22:00:00 - 13.11.2019 22:00:00 (CET)Lyon/Bron, Frankrijk (7480): zicht: 07.11.2019 22:00:00 - 13.11.2019 22:00:00 (CET)Lyon/Bron, Frankrijk (7480): Zonneschijnduur: 07.11.2019 22:00:00 - 13.11.2019 22:00:00 (CET)Lyon/Bron, Frankrijk (7480): neerslag: 07.11.2019 22:00:00 - 13.11.2019 22:00:00 (CET)
Datum & Tijd tt [°C] td [°C] tt 5cm [°C] tt -20cm [°C] ff [km/u] ff [kn] fx [km/u] fx [kn] dd ppp [hPa] vv [km] sd [min] rr [mm]
13.11.2019 22:00:00 2,6 1,0 -0,4 10,6 5 3 9 5 Z 1007,5 18 0 0,0
13.11.2019 21:00:00 3,0 1,4 -0,1 10,7 6 3 11 6 ZW 1007,6 19 0 0,0
13.11.2019 20:00:00 3,6 1,5 0,5 10,7 5 3 8 4 ZZO 1008,2 23 0 0,0
13.11.2019 19:00:00 5,0 1,5 1,2 10,7 4 2 6 4 O 1008,4 30 0 0,0
13.11.2019 18:00:00 6,8 1,5 3,8 10,6 5 3 15 8 N 1008,5 53 0 0,0
13.11.2019 17:00:00 8,6 2,2 8,0 10,6 10 5 15 8 N 1008,0 58 0 0,0
13.11.2019 16:00:00 9,0 1,4 9,3 10,4 4 2 11 6 NNW 1008,0 58 9 0,0
13.11.2019 15:00:00 9,7 1,1 9,3 10,3 5 3 15 8 O 1007,7 41 37 0,0
13.11.2019 14:00:00 9,2 1,8 11,1 10,2 8 4 23 12 NNO 1007,7 57 32 0,0
13.11.2019 13:00:00 9,0 1,9 11,6 10,1 5 3 16 8 N 1007,9 58 53 0,0
13.11.2019 12:00:00 9,1 2,0 8,0 10,1 4 2 15 8 NNW 1008,3 20 42 0,0
13.11.2019 11:00:00 8,0 2,2 8,1 10,2 7 4 20 11 NO 1008,5 20 47 0,0
13.11.2019 10:00:00 6,4 2,3 5,0 10,2 8 5 13 7 NNW 1008,4 40 58 0,0
13.11.2019 09:00:00 4,5 2,5 2,3 10,3 3 1 9 5 N 1008,0 35 38 0,0
13.11.2019 08:00:00 3,6 2,1 1,4 10,4 4 2 11 6 N 1007,3 38 0 0,0
13.11.2019 07:00:00 5,0 2,9 4,1 10,4 6 4 13 7 N 1006,6 49 0 0,0
13.11.2019 06:00:00 4,9 2,9 4,7 10,5 6 3 9 5 NW 1006,1 45 0 0,0
13.11.2019 05:00:00 4,8 3,3 4,2 10,5 2 1 5 3 WNW 1006,3 23 0 0,0
13.11.2019 04:00:00 4,6 3,3 3,8 10,6 0 0 4 2 N 1006,1 18 0 0,0
13.11.2019 03:00:00 4,4 2,7 3,5 10,7 3 2 7 4 NO 1006,1 27 0 0,0
13.11.2019 02:00:00 4,7 3,0 2,6 10,7 3 1 14 8 OZO 1005,9 31 0 0,0
13.11.2019 01:00:00 5,6 3,1 4,2 10,8 11 6 27 15 NO 1005,7 27 0 0,0
13.11.2019 00:00:00 7,1 3,0 4,9 10,8 13 7 18 10 W 1005,1 27 0 0,0
12.11.2019 23:00:00 6,9 4,2 5,7 10,8 6 4 10 5 Z 1005,1 21 0 0,0
12.11.2019 22:00:00 7,1 4,1 6,0 10,9 5 3 6 4 ZZW 1005,5 30 0 0,0
12.11.2019 21:00:00 7,4 3,4 6,2 10,9 4 2 10 5 W 1005,9 33 0 0,0
12.11.2019 20:00:00 7,6 3,3 6,5 10,9 8 4 11 6 OZO 1006,2 44 0 0,0
12.11.2019 19:00:00 7,7 2,8 6,3 10,8 9 5 13 7 OZO 1006,6 40 0 0,0
12.11.2019 18:00:00 8,8 3,2 7,5 10,8 5 3 9 5 OZO 1006,9 47 0 0,0
12.11.2019 17:00:00 9,5 2,3 8,8 10,6 7 4 14 8 OZO 1007,1 58 0 0,0
12.11.2019 16:00:00 10,3 2,9 10,2 10,5 8 4 13 7 ONO 1007,1 53 12 0,0
12.11.2019 15:00:00 12,1 2,0 14,2 10,3 5 3 11 6 ZO 1006,9 60 60 0,0
12.11.2019 14:00:00 11,8 2,3 14,7 10,1 6 4 12 7 N 1008,1 20 53 0,0
12.11.2019 13:00:00 11,3 2,6 14,1 10,0 5 3 10 5 ONO 1008,9 59 60 0,0
12.11.2019 12:00:00 10,4 2,5 13,5 10,0 4 2 14 7 OZO 1010,1 42 60 0,0
12.11.2019 11:00:00 8,6 2,6 10,8 10,1 5 3 11 6 ZW 1011,3 19 60 0,0
12.11.2019 10:00:00 5,9 2,5 2,6 10,2 9 5 17 9 ZZW 1011,4 19 60 0,0
12.11.2019 09:00:00 3,3 2,3 -0,5 10,3 8 4 11 6 Z 1012,4 20 43 0,0
12.11.2019 08:00:00 1,6 0,9 -1,7 10,4 4 2 7 4 Z 1012,4 20 0 0,0
12.11.2019 07:00:00 2,0 1,3 -1,0 10,5 5 3 9 5 ZO 1012,3 18 0 0,0
12.11.2019 06:00:00 2,8 1,6 -0,5 10,6 4 2 6 3 Z 1012,6 16 0 0,0
12.11.2019 05:00:00 3,8 2,5 0,3 10,6 6 3 10 6 W 1012,8 20 0 0,0
12.11.2019 04:00:00 5,8 3,3 3,3 10,7 4 2 5 3 NO 1013,0 46 0 0,0
12.11.2019 03:00:00 6,6 3,4 5,5 10,7 3 2 6 4 WNW 1013,4 53 0 0,0
12.11.2019 02:00:00 6,5 3,3 4,9 10,7 2 1 9 5 NNO 1013,4 54 0 0,0
12.11.2019 01:00:00 6,9 2,8 5,5 10,8 3 1 19 11 NNW 1013,3 54 0 0,0
12.11.2019 00:00:00 7,2 2,9 6,0 10,8 16 9 26 14 WNW 1013,2 58 0 0,0
11.11.2019 23:00:00 7,7 3,7 6,4 10,8 8 4 18 10 W 1012,8 54 0 0,0
11.11.2019 22:00:00 8,1 3,9 6,7 10,8 12 7 31 17 WNW 1012,1 43 0 0,0
11.11.2019 21:00:00 7,6 6,2 6,6 10,8 8 5 11 6 NW 1011,4 7 0 0,0
11.11.2019 20:00:00 7,5 5,6 6,4 10,8 4 2 8 5 ZO 1010,5 13 0 0,2
11.11.2019 19:00:00 7,4 4,7 6,0 10,8 3 2 17 9 WNW 1010,3 18 0 0,0
11.11.2019 18:00:00 8,4 4,8 7,7 10,7 8 4 17 9 OZO 1009,3 21 0 0,0
11.11.2019 17:00:00 9,5 4,5 9,0 10,6 9 5 16 9 OZO 1009,3 25 0 0,0
11.11.2019 16:00:00 10,6 4,5 10,8 10,5 6 4 16 9 O 1009,5 38 26 0,0
11.11.2019 15:00:00 10,9 3,2 11,0 10,3 8 4 15 8 O 1009,6 46 25 0,0
11.11.2019 14:00:00 9,8 3,3 10,5 10,2 6 3 16 8 O 1010,3 56 5 0,0
11.11.2019 13:00:00 8,8 4,2 9,9 10,1 8 4 19 10 OZO 1010,8 20 11 0,0
11.11.2019 12:00:00 7,5 4,4 9,1 10,1 8 5 15 8 OZO 1012,2 23 12 0,0
11.11.2019 11:00:00 5,8 4,1 7,1 10,1 3 2 8 5 NNW 1013,4 16 13 0,0
11.11.2019 10:00:00 4,6 4,0 3,9 10,1 3 2 11 6 NNO 1014,2 10 0 0,0
11.11.2019 09:00:00 3,7 3,3 3,0 10,2 6 3 8 5 O 1014,6 6 0 0,0
11.11.2019 08:00:00 3,0 2,6 2,6 10,3 2 1 6 4 O 1015,0 5 0 0,0
11.11.2019 07:00:00 2,9 2,5 2,2 10,4 5 3 10 5 NNW 1015,5 7 0 0,0
11.11.2019 06:00:00 2,6 2,2 -0,2 10,5 6 4 11 6 OZO 1015,4 8 0 0,0
11.11.2019 05:00:00 1,9 1,3 -0,1 10,6 2 1 7 4 O 1015,6 9 0 0,0
11.11.2019 04:00:00 1,8 1,4 -0,9 10,7 2 1 8 5 WZW 1015,9 8 0 0,0
11.11.2019 03:00:00 1,8 1,2 -0,8 10,9 4 2 12 6 ZZW 1015,9 9 0 0,0
11.11.2019 02:00:00 1,9 1,3 -1,2 11,0 2 1 6 3 NO 1016,5 13 0 0,0
11.11.2019 01:00:00 1,9 1,2 -1,2 11,1 3 1 5 3 W 1016,6 13 0 0,0
11.11.2019 00:00:00 2,6 1,6 -0,4 11,2 0 0 5 3 N 1015,8 18 0 0,0
10.11.2019 23:00:00 3,7 2,4 0,5 11,3 3 1 8 4 NNW 1015,2 23 0 0,0
10.11.2019 22:00:00 5,1 3,3 2,5 11,4 7 4 11 6 NNW 1015,1 25 0 0,0
10.11.2019 21:00:00 5,2 3,5 2,4 11,5 9 5 15 8 NW 1015,2 42 0 0,0
10.11.2019 20:00:00 5,9 3,2 3,6 11,5 11 6 16 8 NW 1015,5 51 0 0,0
10.11.2019 19:00:00 6,5 3,6 3,3 11,5 9 5 14 8 NNW 1014,9 48 0 0,0
10.11.2019 18:00:00 7,3 3,5 5,4 11,5 6 3 18 10 N 1013,9 60 0 0,0
10.11.2019 17:00:00 9,0 3,6 7,9 11,4 11 6 20 11 N 1013,0 60 9 0,0
10.11.2019 16:00:00 9,9 3,0 9,9 11,3 11 6 21 11 N 1012,5 60 14 0,0
10.11.2019 15:00:00 10,8 3,3 12,0 11,1 12 7 19 10 NNO 1011,8 54 46 0,0
10.11.2019 14:00:00 9,8 4,4 11,2 11,0 11 6 20 11 NNO 1011,6 53 0 0,0
10.11.2019 13:00:00 10,0 4,4 10,7 10,9 8 5 16 8 NO 1011,2 53 14 0,0
10.11.2019 12:00:00 9,5 4,5 11,0 10,8 6 3 13 7 NO 1011,3 60 44 0,0
10.11.2019 11:00:00 8,5 4,9 9,7 10,9 4 2 8 5 ONO 1011,2 56 23 0,0
10.11.2019 10:00:00 6,8 4,9 6,1 10,9 0 0 5 3 N 1010,7 60 7 0,0
10.11.2019 09:00:00 5,9 4,2 4,7 10,9 2 1 15 8 WNW 1010,2 58 0 0,0
10.11.2019 08:00:00 5,9 3,9 4,6 11,0 6 4 10 6 O 1009,7 60 0 0,0
10.11.2019 07:00:00 6,6 4,1 5,2 11,0 5 3 10 5 O 1009,0 40 0 0,4
10.11.2019 06:00:00 6,9 3,1 6,2 11,1 4 2 27 15 ZW 1008,7 60 0 0,0
10.11.2019 05:00:00 7,2 3,1 6,5 11,1 19 11 32 17 Z 1008,0 60 0 0,0
10.11.2019 04:00:00 7,0 3,2 5,7 11,2 21 11 40 21 Z 1007,6 60 0 0,0
10.11.2019 03:00:00 6,7 3,3 5,0 11,3 23 12 42 23 Z 1007,8 60 0 0,0
10.11.2019 02:00:00 6,1 3,9 4,8 11,3 18 10 29 16 ZZO 1008,0 19 0 0,0
10.11.2019 01:00:00 5,5 3,5 3,7 11,4 11 6 17 9 ZW 1007,8 19 0 0,0
10.11.2019 00:00:00 3,9 3,0 1,1 11,6 6 4 9 5 OZO 1008,0 14 0 0,0
09.11.2019 23:00:00 3,2 2,2 0,1 11,7 5 3 11 6 O 1008,5 18 0 0,0
09.11.2019 22:00:00 3,6 2,6 0,2 11,8 6 3 9 5 O 1008,9 14 0 0,0
09.11.2019 21:00:00 4,5 3,0 0,7 11,9 4 2 11 6 ZO 1009,0 19 0 0,0
09.11.2019 20:00:00 4,6 3,1 1,2 11,9 6 3 7 4 Z 1009,4 28 0 0,0
09.11.2019 19:00:00 5,7 3,0 2,3 11,9 3 2 8 4 ZZO 1009,7 34 0 0,0
09.11.2019 18:00:00 7,9 3,2 4,4 11,9 6 4 10 5 OZO 1010,0 60 0 0,0
09.11.2019 17:00:00 9,8 2,6 8,1 11,8 3 2 8 4 ONO 1010,5 60 32 0,0
09.11.2019 16:00:00 11,1 2,9 12,5 11,7 5 3 13 7 N 1011,1 60 50 0,0
09.11.2019 15:00:00 10,5 4,0 11,4 11,6 9 5 20 11 N 1011,6 60 0 0,0
09.11.2019 14:00:00 10,3 3,3 10,1 11,5 3 2 17 9 N 1011,9 60 10 0,0
09.11.2019 13:00:00 9,7 2,8 10,9 11,4 10 5 18 10 NNW 1012,6 60 0 0,0
09.11.2019 12:00:00 9,7 4,7 11,9 11,3 5 3 16 8 N 1013,2 20 16 0,0
09.11.2019 11:00:00 9,4 5,2 9,1 11,4 3 1 11 6 W 1013,8 28 33 0,0
09.11.2019 10:00:00 7,5 5,0 7,4 11,4 5 3 9 5 O 1014,1 20 0 0,0
09.11.2019 09:00:00 6,7 5,2 6,2 11,4 4 2 7 4 ONO 1014,3 16 0 0,0
09.11.2019 08:00:00 6,4 4,7 6,0 11,5 4 2 9 5 NO 1013,8 22 0 0,0
09.11.2019 07:00:00 6,7 4,7 5,9 11,5 7 4 11 6 N 1013,1 27 0 0,0
09.11.2019 06:00:00 6,1 4,4 4,0 11,6 7 4 9 5 NNW 1012,9 25 0 0,0
09.11.2019 05:00:00 5,0 4,1 3,0 11,6 0 0 8 4 N 1012,5 17 0 0,0
09.11.2019 04:00:00 5,6 4,2 3,9 11,7 3 2 6 3 NO 1011,8 11 0 0,0
09.11.2019 03:00:00 6,0 4,6 4,1 11,7 3 1 7 4 Z 1011,4 14 0 0,0
09.11.2019 02:00:00 6,7 4,7 4,2 11,8 2 1 6 3 ZZO 1010,9 17 0 0,0
09.11.2019 01:00:00 7,4 4,9 6,6 11,8 3 1 13 7 ZO 1010,4 15 0 0,0
09.11.2019 00:00:00 7,2 4,5 6,6 11,9 8 4 15 8 NW 1009,7 19 0 0,0
08.11.2019 23:00:00 6,9 4,9 5,8 12,0 4 2 8 4 W 1009,2 22 0 0,0
08.11.2019 22:00:00 6,5 5,1 3,9 12,0 6 4 9 5 NNW 1008,8 17 0 0,0
08.11.2019 21:00:00 6,0 4,5 3,8 12,1 0 0 9 5 N 1008,2 16 0 0,0
08.11.2019 20:00:00 6,3 4,6 2,6 12,1 4 2 8 4 NO 1007,4 14 0 0,0
08.11.2019 19:00:00 6,5 4,3 3,0 12,1 3 2 5 3 ZO 1006,6 29 0 0,0
08.11.2019 18:00:00 8,3 4,3 6,4 12,1 4 2 14 8 ZW 1005,6 47 0 0,0
08.11.2019 17:00:00 9,5 5,3 8,9 12,0 7 4 12 6 ZW 1005,0 55 0 0,0
08.11.2019 16:00:00 10,1 5,3 9,7 11,9 10 5 13 7 Z 1004,6 60 0 0,0
08.11.2019 15:00:00 10,6 6,0 11,7 11,8 3 1 11 6 Z 1003,9 47 0 0,0
08.11.2019 14:00:00 9,9 6,4 10,6 11,6 7 4 17 9 ZZW 1003,6 30 0 0,0
08.11.2019 13:00:00 9,9 5,9 11,2 11,5 11 6 18 10 ZZW 1003,6 34 42 0,0
08.11.2019 12:00:00 9,4 6,3 11,0 11,5 6 4 17 9 Z 1004,0 18 55 0,0
08.11.2019 11:00:00 8,1 5,6 10,6 11,5 7 4 12 7 Z 1004,6 18 48 0,0
08.11.2019 10:00:00 7,0 5,6 5,5 11,5 7 4 17 9 ZZO 1004,7 15 39 0,0
08.11.2019 09:00:00 5,0 4,9 4,5 11,6 10 5 16 9 Z 1005,2 3,1 0 0,0
08.11.2019 08:00:00 4,5 4,4 3,0 11,7 9 5 16 8 ZZO 1004,7 0,3 0 0,0
08.11.2019 07:00:00 3,4 3,1 0,0 11,8 7 4 10 5 ZO 1004,5 3,8 0 0,0
08.11.2019 06:00:00 3,0 2,6 -0,3 12,0 4 2 6 3 NO 1004,3 7 0 0,0
08.11.2019 05:00:00 3,3 2,7 0,6 12,1 4 2 10 5 ZZO 1004,1 12 0 0,0
08.11.2019 04:00:00 3,8 2,9 0,5 12,2 5 3 8 4 ZZO 1004,2 14 0 0,0
08.11.2019 03:00:00 5,2 4,3 2,6 12,3 4 2 13 7 OZO 1004,5 20 0 0,0
08.11.2019 02:00:00 6,2 5,0 4,3 12,3 9 5 12 7 Z 1004,6 32 0 0,0
08.11.2019 01:00:00 6,6 5,4 5,2 12,4 6 3 13 7 ZZO 1004,6 35 0 0,0
08.11.2019 00:00:00 7,3 5,9 5,6 12,4 8 4 11 6 ZZO 1005,0 40 0 0,0
07.11.2019 23:00:00 7,9 6,5 6,7 12,5 5 3 13 7 ZZO 1005,4 39 0 0,0
07.11.2019 22:00:00 8,0 6,9 6,8 12,5 5 3 9 5 ZZO 1005,7 24 0 0,0

tt = temperatuur
td = dauwpunt
tt 5cm = temperatuur 5cm
tt -20cm = temperatuur -20cm
ff = windsnelheid
fx = windstoten
dd = windrichting
ppp = luchtdruk
vv = zicht
sd = Zonneschijnduur
rr = neerslag

Weerstations in de omgeving